Whiteman AFB, MO

9:16 AM CDT on April 28, 2017 (GMT -0500)
Whiteman Air Force Base

Weather History for KSZL - April, 2012

Change the Weather History Date:

Sunday, April 8, 2012

  Actual Average Record
Temperature  
Mean Temperature 52 °F -  
Max Temperature 66 °F 61 °F 84 °F (2001)
Min Temperature 37 °F 41 °F 23 °F (2007)
Degree Days  
Heating Degree Days 14    
Growing Degree Days 2 (Base 50)    
Moisture  
Dew Point 37 °F    
Average Humidity 61    
Maximum Humidity 100    
Minimum Humidity 26    
Precipitation  
Precipitation 0.00 in - - ()
Sea Level Pressure  
Sea Level Pressure 30.32 in    
Wind  
Wind Speed 2 mph (South)    
Max Wind Speed 8 mph    
Max Gust Speed -    
Visibility 10 miles    
Events      
Averages and records for this station are not official NWS values.
T = Trace of Precipitation, MM = Missing Value Source: NWS Daily Summary

Daily Weather History Graph

Daily Weather History Graph

Search for Another Location

Airport or City:

Trip Planner

Search our weather history database for the weather conditions in past years. The results will help you decide how hot, cold, wet, or windy it might be!

Date:

Astronomy

Apr. 08, 2012 Rise Set
Actual Time 6:47 AM CDT 7:44 PM CDT
Civil Twilight 6:20 AM CDT 8:12 PM CDT
Nautical Twilight 5:48 AM CDT 8:44 PM CDT
Astronomical Twilight 5:14 AM CDT 9:17 PM CDT
Moon 10:30 PM CDT (4/8) 7:46 AM CDT (4/8)
Length of Visible Light 13h 51m
Length of Day
12h 57m
Waning Gibbous, 95% of the Moon is Illuminated
Apr 8
Waning Gibbous
Apr 13
Last Quarter
Apr 21
New
Apr 29
First Quarter
May 5
Full

Hourly Weather History & Observations

Time (CDT) Temp. Dew Point Humidity Pressure Visibility Wind Dir Wind Speed Gust Speed Precip Events Conditions
12:55 AM 46.4 °F 46.4 °F 100% 30.35 in 10.0 mi Calm Calm - N/A   Clear
1:55 AM 45.9 °F 45.5 °F 99% 30.36 in 10.0 mi Calm Calm - N/A   Clear
2:55 AM 43.5 °F 43.3 °F 99% 30.36 in 10.0 mi Calm Calm - N/A   Clear
3:55 AM 42.4 °F 40.5 °F 93% 30.37 in 10.0 mi Calm Calm - N/A   Clear
4:55 AM 43.3 °F 39.4 °F 86% 30.38 in 10.0 mi Calm Calm - N/A   Clear
5:55 AM 39.2 °F 38.8 °F 99% 30.38 in 10.0 mi Calm Calm - N/A   Clear
6:55 AM 37.0 °F 36.9 °F 99% 30.37 in 10.0 mi Calm Calm - N/A   Clear
7:55 AM 41.0 °F 40.5 °F 98% 30.41 in 10.0 mi Calm Calm - N/A   Clear
8:55 AM 48.7 °F 40.6 °F 74% 30.41 in 10.0 mi Calm Calm - N/A   Clear
9:55 AM 54.0 °F 37.9 °F 55% 30.40 in 10.0 mi East 5.8 mph - N/A   Clear
10:55 AM 57.6 °F 30.0 °F 35% 30.40 in 10.0 mi East 8.1 mph - N/A   Clear
11:55 AM 59.7 °F 31.5 °F 34% 30.39 in 10.0 mi Variable 5.8 mph - N/A   Clear
12:55 PM 61.2 °F 32.2 °F 34% 30.37 in 10.0 mi Variable 5.8 mph - N/A   Clear
1:55 PM 63.0 °F 33.8 °F 34% 30.34 in 10.0 mi Variable 3.5 mph - N/A   Clear
2:55 PM 64.6 °F 32.5 °F 30% 30.30 in 10.0 mi Variable 6.9 mph - N/A   Clear
3:55 PM 65.3 °F 29.5 °F 26% 30.27 in 10.0 mi SE 5.8 mph - N/A   Clear
4:55 PM 66.7 °F 36.9 °F 33% 30.25 in 10.0 mi South 4.6 mph - N/A   Clear
5:55 PM 66.2 °F 37.2 °F 34% 30.22 in 10.0 mi South 4.6 mph - N/A   Clear
6:55 PM 64.0 °F 38.3 °F 39% 30.22 in 10.0 mi SW 5.8 mph - N/A   Clear
7:55 PM 60.8 °F 33.8 °F 36% 30.21 in 10.0 mi Calm Calm - N/A   Clear
8:55 PM 58.1 °F 33.8 °F 40% 30.21 in 10.0 mi Calm Calm - N/A   Clear
9:55 PM 51.1 °F 39.2 °F 64% 30.21 in 10.0 mi SW 4.6 mph - N/A   Clear
10:55 PM 50.7 °F 37.6 °F 61% 30.21 in 10.0 mi WSW 4.6 mph - N/A   Clear
11:55 PM 49.5 °F 38.1 °F 65% 30.20 in 10.0 mi SW 5.8 mph - N/A   Clear